CW2098 Weather Reports


Display with metric or nautical units.
time (UTC)temp
F
wind
direction
speed
MPH
gust
MPH
rain 1hr
in
rain 24hr
in
rain mn
in
humidity
%
barometer
mb
20240523163327 83 68 5.0 10.0 0.00 0.00 0.00 64 1015.7
20240523162327 83 52 4.0 8.0 0.00 0.00 0.00 64 1015.8
20240523161815 84 87 4.0 8.0 0.00 0.00 0.00 59 1015.8
20240523160327 85 48 4.0 7.0 0.00 0.00 0.00 56 1015.9
20240523155328 85 354 2.0 5.0 0.00 0.00 0.00 57 1015.9
20240523154326 84 50 2.0 5.0 0.00 0.00 0.00 56 1016.0
20240523153326 85 350 2.0 4.0 0.00 0.00 0.00 55 1016.1
20240523152323 84 120 3.0 6.0 0.00 0.00 0.00 54 1016.1
20240523151320 85 215 3.0 6.0 0.00 0.00 0.00 51 1016.1
20240523150320 84 217 3.0 5.0 0.00 0.00 0.00 55 1016.1
20240523145322 84 242 2.0 6.0 0.00 0.00 0.00 55 1016.1
20240523144321 83 255 2.0 9.0 0.00 0.00 0.00 56 1016.1
20240523143318 83 240 2.0 9.0 0.00 0.00 0.00 56 1016.1
20240523142321 82 218 3.0 6.0 0.00 0.00 0.00 59 1016.2
20240523141316 82 224 3.0 6.0 0.00 0.00 0.00 59 1016.4
20240523140317 81 150 3.0 7.0 0.00 0.00 0.00 60 1016.5
20240523135316 81 174 4.0 8.0 0.00 0.00 0.00 61 1016.7
20240523134316 81 196 4.0 8.0 0.00 0.00 0.00 65 1016.8
20240523133313 80 215 3.0 7.0 0.00 0.00 0.00 63 1016.8
20240523132800 80 206 3.0 5.0 0.00 0.00 0.00 65 1016.8
20240523131313 80 207 3.0 7.0 0.00 0.00 0.00 68 1016.8
20240523130314 79 211 3.0 8.0 0.00 0.00 0.00 70 1016.8
20240523125313 78 185 3.0 6.0 0.00 0.00 0.00 72 1016.6
20240523124314 78 179 3.0 6.0 0.00 0.00 0.00 74 1016.4
20240523123310 78 192 3.0 6.0 0.00 0.00 0.00 75 1016.6
20240523122750 78 149 2.0 5.0 0.00 0.00 0.00 77 1016.5
20240523121311 77 160 2.0 4.0 0.00 0.00 0.00 79 1016.5
20240523120312 76 191 2.0 4.0 0.00 0.00 0.00 80 1016.4
20240523115312 75 179 2.0 4.0 0.00 0.00 0.00 83 1016.1
20240523114309 74 171 2.0 4.0 0.00 0.00 0.00 88 1016.2
20240523113309 73 178 2.0 3.0 0.00 0.00 0.00 93 1016.2
20240523112309 72 154 2.0 3.0 0.00 0.00 0.00 95 1016.1
20240523111310 71 159 2.0 3.0 0.00 0.00 0.00 96 1016.0
20240523110309 70 178 2.0 3.0 0.00 0.00 0.00 96 1015.8
20240523105308 70 172 0.0 1.0 0.00 0.00 0.00 95 1015.7
20240523104307 70 0 0.0 1.0 0.00 0.00 0.00 95 1015.6
20240523103304 70 0 0.0 0.0 0.00 0.00 0.00 95 1015.5
20240523102307 70 0 0.0 1.0 0.00 0.00 0.00 95 1015.4
20240523101301 70 154 1.0 2.0 0.00 0.00 0.00 95 1015.4
20240523100301 70 0 0.0 2.0 0.00 0.00 0.00 94 1015.5
20240523095303 70 0 0.0 2.0 0.00 0.00 0.00 94 1015.5
20240523094300 70 155 0.0 2.0 0.00 0.00 0.00 93 1015.5
20240523093301 70 0 0.0 0.0 0.00 0.00 0.00 93 1015.6
20240523092300 71 0 0.0 1.0 0.00 0.00 0.00 92 1015.7
20240523091259 71 0 0.0 0.0 0.00 0.02 0.00 92 1015.7
20240523090300 71 0 0.0 1.0 0.00 0.04 0.00 91 1015.8
20240523085259 72 0 0.0 2.0 0.00 0.04 0.00 91 1015.8
20240523084300 72 0 1.0 2.0 0.00 0.04 0.00 92 1015.7
20240523083259 72 148 1.0 2.0 0.00 0.04 0.00 92 1015.7
20240523082259 71 154 1.0 3.0 0.00 0.04 0.00 92 1015.7
20240523081259 71 136 1.0 3.0 0.00 0.04 0.00 92 1015.5
20240523080300 71 129 0.0 2.0 0.00 0.04 0.00 92 1015.7
20240523075759 72 0 0.0 2.0 0.00 0.12 0.00 92 1016.0
20240523074300 71 155 1.0 2.0 0.00 0.13 0.00 92 1016.0
20240523073735 71 134 0.0 2.0 0.00 0.13 0.00 92 1016.0
20240523072255 71 143 1.0 2.0 0.00 0.13 0.00 93 1015.9
20240523071256 71 153 1.0 3.0 0.00 0.13 0.00 93 1015.9
20240523070256 71 150 1.0 2.0 0.00 0.13 0.00 93 1015.9
20240523065257 71 139 1.0 3.0 0.00 0.13 0.00 93 1015.9
20240523064737 71 128 0.0 2.0 0.00 0.13 0.00 93 1016.0
20240523063257 71 0 1.0 2.0 0.00 0.13 0.00 92 1016.1
20240523062254 71 165 0.0 1.0 0.00 0.13 0.00 92 1016.1
20240523061254 71 0 0.0 2.0 0.00 0.13 0.00 91 1016.2
20240523060254 71 0 0.0 1.0 0.00 0.13 0.00 91 1016.2
20240523055254 72 145 1.0 2.0 0.00 0.13 0.00 90 1016.1
20240523054255 72 0 0.0 1.0 0.00 0.13 0.00 90 1016.3
20240523053255 72 0 0.0 1.0 0.00 0.13 0.00 90 1016.1
20240523052252 73 0 0.0 2.0 0.00 0.13 0.00 89 1016.0
20240523051252 73 138 1.0 3.0 0.00 0.13 0.00 89 1016.2
20240523050250 73 146 1.0 3.0 0.00 0.13 0.00 90 1016.5
20240523045251 72 150 1.0 3.0 0.00 0.13 0.00 90 1016.7
20240523044251 72 146 0.0 1.0 0.00 0.13 0.00 90 1016.9
20240523043250 72 0 0.0 0.0 0.00 0.13 0.00 89 1016.8
20240523042248 72 0 0.0 2.0 0.00 0.13 0.00 89 1017.0
20240523041245 72 122 0.0 2.0 0.00 0.13 0.00 89 1017.0
20240523040245 72 0 1.0 2.0 0.00 0.13 0.00 89 1017.1
20240523035243 72 149 0.0 2.0 0.00 0.13 0.13 89 1017.0
20240523034718 72 153 0.0 1.0 0.00 0.13 0.13 88 1016.9
20240523033242 73 154 1.0 2.0 0.00 0.13 0.13 88 1016.8
20240523032242 73 154 0.0 1.0 0.00 0.13 0.13 87 1016.8
20240523031242 73 0 1.0 2.0 0.00 0.13 0.13 87 1016.8
20240523030254 73 162 1.0 2.0 0.00 0.13 0.13 87 1016.6
20240523025241 73 151 0.0 1.0 0.00 0.13 0.13 87 1016.3
20240523024242 73 0 0.0 2.0 0.00 0.13 0.13 87 1016.3
20240523023237 73 161 1.0 2.0 0.00 0.13 0.13 88 1016.2
20240523022237 74 0 0.0 2.0 0.00 0.13 0.13 88 1016.1
20240523021235 74 144 1.0 2.0 0.00 0.13 0.13 88 1016.0
20240523020235 74 147 1.0 2.0 0.00 0.13 0.13 87 1015.9
20240523015235 74 0 0.0 0.0 0.00 0.13 0.13 86 1015.9
20240523014248 74 0 0.0 0.0 0.00 0.13 0.13 86 1015.8
20240523013235 75 0 0.0 0.0 0.00 0.13 0.13 84 1015.5
20240523012236 75 0 0.0 2.0 0.00 0.13 0.13 83 1015.4
20240523010723 76 113 1.0 3.0 0.00 0.13 0.13 82 1015.1
20240523005234 77 130 2.0 4.0 0.00 0.13 0.13 81 1015.1
20240523004234 77 103 2.0 5.0 0.00 0.13 0.13 81 1015.0
20240523003719 77 139 2.0 5.0 0.00 0.13 0.13 80 1014.9
20240523002233 78 113 3.0 6.0 0.00 0.13 0.13 79 1014.7
20240523001716 78 110 4.0 7.0 0.00 0.13 0.13 77 1014.6
20240523000233 79 112 3.0 6.0 0.00 0.13 0.13 75 1014.7
20240522235233 79 105 4.0 9.0 0.00 0.13 0.13 73 1014.6
20240522234229 80 142 3.0 9.0 0.00 0.13 0.13 71 1014.4
20240522233229 80 107 4.0 8.0 0.00 0.13 0.13 69 1014.3
20240522232229 80 105 4.0 8.0 0.00 0.13 0.13 68 1014.3
20240522231228 80 148 4.0 8.0 0.00 0.13 0.13 68 1014.4
20240522230229 81 131 4.0 9.0 0.00 0.13 0.13 66 1014.2
20240522225227 81 84 5.0 9.0 0.00 0.13 0.13 65 1014.3
20240522224226 81 79 5.0 10.0 0.00 0.13 0.13 67 1014.3
20240522223227 82 45 4.0 7.0 0.00 0.13 0.13 66 1014.3
20240522222226 82 113 4.0 10.0 0.00 0.13 0.13 65 1014.3
20240522221226 82 110 4.0 9.0 0.00 0.13 0.13 64 1014.3
20240522220225 83 84 3.0 7.0 0.00 0.13 0.13 63 1014.4
20240522215225 83 81 4.0 9.0 0.00 0.13 0.13 62 1014.4
20240522214224 82 118 4.0 8.0 0.00 0.13 0.13 64 1014.5
20240522213224 82 94 4.0 9.0 0.00 0.13 0.13 63 1014.7
20240522212225 82 178 5.0 9.0 0.00 0.13 0.13 63 1014.6
20240522211224 82 42 5.0 9.0 0.00 0.13 0.13 61 1014.8
20240522210224 82 128 4.0 9.0 0.00 0.13 0.13 63 1014.9
20240522205656 82 143 5.0 10.0 0.00 0.13 0.13 64 1015.1
20240522204221 82 64 4.0 9.0 0.00 0.13 0.13 62 1015.1
20240522203220 82 175 5.0 10.0 0.00 0.13 0.13 61 1015.2
20240522202223 82 103 4.0 9.0 0.00 0.13 0.13 63 1015.2
20240522201221 82 55 4.0 10.0 0.00 0.13 0.13 62 1015.3
20240522200218 82 176 5.0 11.0 0.00 0.13 0.13 61 1015.2
20240522195219 82 115 5.0 11.0 0.00 0.13 0.13 61 1015.4
20240522194908 82 145 6.0 12.0 0.00 0.13 0.13 63 1015.5
20240522193216 82 96 6.0 12.0 0.00 0.13 0.13 64 1015.6
20240522192216 82 98 5.0 11.0 0.00 0.13 0.13 61 1015.8
20240522191220 82 161 6.0 11.0 0.00 0.13 0.13 61 1015.9
20240522190227 82 132 6.0 13.0 0.00 0.13 0.13 63 1016.1
20240522185706 82 84 5.0 12.0 0.00 0.13 0.13 65 1016.1
20240522184216 82 75 5.0 12.0 0.00 0.13 0.13 64 1016.2
20240522183216 81 92 6.0 12.0 0.00 0.13 0.13 63 1016.2
20240522182217 82 98 6.0 15.0 0.00 0.13 0.13 63 1016.2
20240522181216 81 98 8.0 16.0 0.00 0.13 0.13 64 1016.5
20240522175218 82 102 6.0 11.0 0.00 0.13 0.13 62 1016.7
20240522173213 81 75 6.0 11.0 0.00 0.13 0.13 63 1016.9
20240522172212 82 101 6.0 12.0 0.00 0.13 0.13 65 1017.1
20240522171652 81 31 6.0 12.0 0.00 0.13 0.13 64 1017.0
20240522170657 81 104 6.0 10.0 0.00 0.13 0.13 64 1017.1
20240522165210 80 105 6.0 14.0 0.00 0.13 0.13 66 1017.1
20240522164210 80 90 5.0 14.0 0.00 0.13 0.13 65 1017.2